Weather History for Jonesville, VA

Change the Weather History Date:

Tuesday, October 22, 2013

  Actual Average (KLOZ) Record (KLOZ)
Temperature  
Mean Temperature 47 °F 55 °F  
Max Temperature 55 °F 68 °F 81 °F (1978)
Min Temperature 39 °F 43 °F 21 °F (1987)
Degree Days  
Heating Degree Days 18 10  
Month to date heating degree days 158  
Since 1 July heating degree days 205  
Cooling Degree Days 0 0  
Month to date cooling degree days 17  
Moisture  
Dew Point 46 °F    
Average Humidity 94    
Maximum Humidity 100    
Minimum Humidity 82    
Precipitation  
Precipitation 0.03 in 0.11 in 1.66 in (1990)
Month to date precipitation 2.08  
Sea Level Pressure  
Sea Level Pressure 29.98 in    
Wind  
Wind Speed 0 mph (North)    
Max Wind Speed 0 mph    
Max Gust Speed -    
Visibility 10 miles    
Events Rain    
T = Trace of Precipitation, MM = Missing Value Source: NWS Daily Summary

Daily Weather History Graph

Daily Weather History Graph

Search for Another Location

Airport:

Trip Planner

Search our weather history database for the weather conditions in past years. The results will help you decide how hot, cold, wet, or windy it might be!

Date:

Astronomy

Oct. 22, 2013 Rise Set
Actual Time 7:46 AM EDT 6:47 PM EDT
Civil Twilight 7:20 AM EDT 7:13 PM EDT
Nautical Twilight 6:50 AM EDT 7:43 PM EDT
Astronomical Twilight 6:20 AM EDT 8:13 PM EDT
Moon 9:30 PM EDT 11:10 AM EDT
Length of Visible Light 11h 52m
Length of Day
11h 00m
Waning Gibbous, 87% of the Moon is Illuminated
Oct 22
Waning Gibbous
Oct 26
Last Quarter
Nov 3
New
Nov 10
First Quarter
Nov 17
Full

Hourly Weather History & Observations

Time (EDT) Temp. Dew Point Humidity Pressure Visibility Wind Dir Wind Speed Gust Speed Precip Events Conditions
12:15 AM 42.8 °F 41.0 °F 93% 30.03 in 10.0 mi Calm Calm - N/A   Unknown
12:35 AM 42.8 °F 41.0 °F 93% 30.03 in 10.0 mi Calm Calm - N/A   Unknown
12:55 AM 41.0 °F 41.0 °F 100% 30.03 in 10.0 mi Calm Calm - N/A   Unknown
1:15 AM 41.0 °F 41.0 °F 100% 30.03 in 10.0 mi Calm Calm - N/A   Unknown
1:35 AM 41.0 °F 41.0 °F 100% 30.03 in 10.0 mi Calm Calm - N/A   Unknown
1:55 AM 41.0 °F 41.0 °F 100% 30.04 in 10.0 mi Calm Calm - N/A   Unknown
2:15 AM 41.0 °F 41.0 °F 100% 30.04 in 10.0 mi Calm Calm - N/A   Unknown
2:35 AM 39.2 °F 39.2 °F 100% 30.04 in 10.0 mi Calm Calm - N/A   Unknown
2:55 AM 39.2 °F 39.2 °F 100% 30.04 in 10.0 mi Calm Calm - N/A   Unknown
3:15 AM 41.0 °F 41.0 °F 100% 30.02 in 10.0 mi Calm Calm - N/A   Unknown
3:35 AM 41.0 °F 41.0 °F 100% 30.02 in 10.0 mi Calm Calm - N/A   Unknown
3:55 AM 42.8 °F 41.0 °F 93% 30.02 in 10.0 mi Calm Calm - N/A   Unknown
4:15 AM 41.0 °F 41.0 °F 100% 30.02 in 10.0 mi Calm Calm - N/A   Unknown
4:35 AM 42.8 °F 41.0 °F 93% 30.02 in 10.0 mi Calm Calm - N/A   Unknown
4:55 AM 41.0 °F 41.0 °F 100% 30.02 in 10.0 mi Calm Calm - N/A   Unknown
5:15 AM 44.6 °F 42.8 °F 93% 30.01 in 10.0 mi Calm Calm - N/A   Unknown
5:35 AM 42.8 °F 42.8 °F 100% 30.02 in 10.0 mi Calm Calm - N/A   Unknown
5:55 AM 42.8 °F 42.8 °F 100% 30.02 in 10.0 mi Calm Calm - N/A   Unknown
6:15 AM 42.8 °F 42.8 °F 100% 30.03 in 10.0 mi Calm Calm - N/A   Unknown
6:35 AM 44.6 °F 42.8 °F 93% 30.02 in 10.0 mi Calm Calm - N/A   Unknown
6:55 AM 44.6 °F 42.8 °F 93% 30.02 in 10.0 mi Calm Calm - N/A   Unknown
7:15 AM 44.6 °F 42.8 °F 93% 30.02 in 10.0 mi Calm Calm - N/A   Unknown
7:35 AM 44.6 °F 42.8 °F 93% 30.01 in 10.0 mi Calm Calm - N/A   Unknown
7:55 AM 44.6 °F 42.8 °F 93% 30.02 in 10.0 mi Calm Calm - N/A   Unknown
8:15 AM 44.6 °F 44.6 °F 100% 30.01 in 10.0 mi Calm Calm - N/A   Unknown
8:35 AM 44.6 °F 44.6 °F 100% 30.03 in 10.0 mi Calm Calm - N/A   Overcast
8:55 AM 44.6 °F 44.6 °F 100% 30.02 in 7.0 mi Calm Calm - N/A Rain Light Rain
9:15 AM 46.4 °F 46.4 °F 100% 30.04 in 7.0 mi Calm Calm - N/A Rain Light Rain
9:35 AM 46.4 °F 46.4 °F 100% 30.03 in 10.0 mi Calm Calm - N/A   Partly Cloudy
9:55 AM 48.2 °F 46.4 °F 93% 30.05 in 10.0 mi Calm Calm - N/A Rain Light Rain
10:15 AM 48.2 °F 46.4 °F 93% 30.05 in 5.0 mi Calm Calm - N/A Rain Light Rain
10:35 AM 48.2 °F 46.4 °F 93% 30.05 in 3.0 mi Calm Calm - 0.02 in Rain Light Rain
10:55 AM 48.2 °F 48.2 °F 100% 30.03 in 5.0 mi Calm Calm - 0.03 in Rain Light Rain
11:15 AM 48.2 °F 48.2 °F 100% 30.02 in 10.0 mi Calm Calm - N/A   Mostly Cloudy
11:35 AM 50.0 °F 50.0 °F 100% 30.03 in 9.0 mi Calm Calm - N/A   Mostly Cloudy
11:55 AM 50.0 °F 50.0 °F 100% 30.02 in 10.0 mi Calm Calm - N/A   Mostly Cloudy
12:15 PM 50.0 °F 50.0 °F 100% 30.03 in 9.0 mi Calm Calm - N/A Rain Light Rain
12:35 PM 51.8 °F 50.0 °F 94% 30.02 in 10.0 mi Calm Calm - N/A   Mostly Cloudy
12:55 PM 53.6 °F 50.0 °F 88% 30.01 in 10.0 mi Calm Calm - N/A   Mostly Cloudy
1:15 PM 53.6 °F 50.0 °F 88% 29.99 in 10.0 mi Calm Calm - N/A   Overcast
1:35 PM 53.6 °F 50.0 °F 88% 29.98 in 10.0 mi Calm Calm - N/A   Overcast
1:55 PM 53.6 °F 50.0 °F 88% 29.97 in 9.0 mi Calm Calm - N/A   Overcast
2:15 PM 53.6 °F 50.0 °F 88% 29.95 in 10.0 mi Calm Calm - N/A   Overcast
2:35 PM 53.6 °F 50.0 °F 88% 29.95 in 10.0 mi Calm Calm - N/A   Mostly Cloudy
2:55 PM 53.6 °F 50.0 °F 88% 29.94 in 10.0 mi Calm Calm - N/A   Overcast
3:15 PM 53.6 °F 50.0 °F 88% 29.94 in 10.0 mi Calm Calm - N/A   Overcast
3:35 PM 55.4 °F 50.0 °F 82% 29.93 in 10.0 mi Calm Calm - N/A   Overcast
3:55 PM 55.4 °F 50.0 °F 82% 29.93 in 10.0 mi Calm Calm - N/A   Overcast
4:15 PM 53.6 °F 50.0 °F 88% 29.93 in 10.0 mi Calm Calm - N/A   Overcast
4:35 PM 55.4 °F 50.0 °F 82% 29.92 in 10.0 mi Calm Calm - N/A   Overcast
4:55 PM 55.4 °F 50.0 °F 82% 29.92 in 10.0 mi Calm Calm - N/A   Mostly Cloudy
5:15 PM 55.4 °F 50.0 °F 82% 29.91 in 10.0 mi Calm Calm - N/A   Overcast
5:35 PM 55.4 °F 50.0 °F 82% 29.91 in 10.0 mi Calm Calm - N/A   Mostly Cloudy
5:55 PM 53.6 °F 50.0 °F 88% 29.90 in 10.0 mi Calm Calm - N/A   Overcast
6:15 PM 53.6 °F 50.0 °F 88% 29.91 in 10.0 mi Calm Calm - N/A   Mostly Cloudy
6:35 PM 53.6 °F 50.0 °F 88% 29.90 in 10.0 mi Calm Calm - N/A   Overcast
6:55 PM 51.8 °F 50.0 °F 94% 29.90 in 10.0 mi Calm Calm - N/A   Unknown
7:15 PM 50.0 °F 48.2 °F 94% 29.90 in 10.0 mi Calm Calm - N/A   Unknown
7:35 PM 50.0 °F 48.2 °F 94% 29.90 in 10.0 mi Calm Calm - N/A   Overcast
7:55 PM 50.0 °F 48.2 °F 94% 29.90 in 10.0 mi Calm Calm - N/A   Overcast
8:15 PM 50.0 °F 48.2 °F 94% 29.91 in 10.0 mi Calm Calm - N/A   Overcast
8:35 PM 50.0 °F 50.0 °F 100% 29.91 in 10.0 mi Calm Calm - N/A   Overcast
8:55 PM 50.0 °F 48.2 °F 94% 29.91 in 10.0 mi Calm Calm - N/A   Overcast
9:15 PM 50.0 °F 48.2 °F 94% 29.91 in 10.0 mi Calm Calm - N/A   Overcast
9:35 PM 50.0 °F 48.2 °F 94% 29.91 in 10.0 mi Calm Calm - N/A   Overcast
9:55 PM 50.0 °F 48.2 °F 94% 29.90 in 10.0 mi Calm Calm - N/A   Overcast
10:35 PM 48.2 °F 46.4 °F 93% 29.90 in 10.0 mi Calm Calm - N/A   Mostly Cloudy
10:55 PM 48.2 °F 46.4 °F 93% 29.90 in 10.0 mi Calm Calm - N/A   Unknown
11:15 PM 48.2 °F 46.4 °F 93% 29.89 in 10.0 mi Calm Calm - N/A   Unknown
11:35 PM 48.2 °F 44.6 °F 87% 29.88 in 10.0 mi Calm Calm - N/A   Unknown
11:55 PM 48.2 °F 44.6 °F 87% 29.88 in 10.0 mi Calm Calm - N/A   Unknown